Вернуться в каталог

CZ-4 DEB

АктивенSSO
NORAD 20912·DEBRIS·🇨🇳 China

Запущен Sep 3, 1990 с Taiyuan Satellite Launch Center

Loading…

Ближайшие Пролёты (ближайшие 24 часа)

TLE

СвежийSource: Space-Track

Эпоха: Sep 14, 2026, 18:33 UTC

1 20912U 90081BV  26257.77336737  .00001040  00000-0  36440-3 0  9992
2 20912  98.5487 257.0919 0013318   9.0273 166.4660 14.37127746862420

Отслеживайте CZ-4 DEB в реальном времени с AllMySat

Download on the App Store